Location: Ciechanow
(52.8812°N, 20.6195°E)
Time: 01:13:21
(UTC+01:00)

ISS - Pass Details

Date: 25 January 2019
Orbit: 403 x 411 km, 51.6° (Epoch: 17 February)

Event Time Altitude Azimuth Distance (km) Brightness Sun altitude
Rises 18:28:54 0° 231° (SW) 2,330 0.9 -20.8°
Reaches altitude 10° 18:31:05 10° 221° (SW) 1,473 -0.4 -21.1°
Enters shadow 18:33:10 28° 190° (S) 810 -2.2 -21.4°
